Home   Weather   Kitchener   Past weeks

Flag for Canada Past Weather in Kitchener, Ontario, Canada — Yesterday and Last 2 Weeks

Now
19 °F

Passing clouds.


Feels Like: 11 °F
Forecast: 13 / 29 °F
Wind: 6 mph from West

Location: Waterloo Well

Current Time: Dec 11, 2016 at 5:09:39 am

Latest Report: Dec 11, 2016 at 4:00 am


Visibility: 9 mi

Pressure: 30.39 "Hg

Humidity: 86%

Dew Point: 16 °F

Location of KitchenerLocation

Past Weather in Kitchener — Graph

°F

Kitchener Temperature Yesterday

Maximum temperature yesterday: 27 °F (at 2:00 pm)
Minimum temperature yesterday: 19 °F (at 12:00 am)
Average temperature yesterday: 22 °F

High & Low Weather Summary for the Past Weeks

 TemperatureHumidityPressure
High55 °F (Nov 29, 2:00 pm)100% (Nov 26, 4:00 am)30.39 "Hg (Nov 26, 4:00 am)
Low18 °F (Dec 9, 7:00 am)59% (Dec 10, 2:00 pm)29.46 "Hg (Nov 30, 9:00 pm)
Average35 °F86%29.99 "Hg
* Reported Nov 26 4:00 am — Dec 11 4:00 am, Kitchener, Weather by CustomWeather, © 2016

Note: Actual official high and low records may vary slightly from our data, if they occured in-between our weather recording intervals... More about our weather records

Advertising

Kitchener Weather History for the Previous 24 Hours

Scroll right to see more
 ConditionsComfort  
Time TempWeatherWind HumidityBarometerVisibility
4:00 am
Sun, Dec 11
19 °FPassing clouds.6 mph86%30.39 "Hg9 mi
3:51 am18 °FMostly cloudy.5 mph93%30.39 "Hg9 mi
3:04 am18 °FLight snow. Partly cloudy.3 mph86%30.39 "Hg9 mi
2:00 am21 °FOvercast.7 mph80%30.38 "Hg9 mi
1:48 am21 °FOvercast.7 mph80%30.38 "Hg9 mi
1:00 am21 °FLight snow. Overcast.7 mph80%30.38 "Hg9 mi
12:00 am21 °FLight snow. Overcast.7 mph86%30.38 "Hg9 mi
11:51 pm
Sat, Dec 10
21 °FOvercast.7 mph86%30.39 "Hg9 mi
11:00 pm21 °FLight snow. Overcast.7 mph86%30.39 "Hg9 mi
10:54 pm21 °FLight snow. Overcast.7 mph86%30.39 "Hg9 mi
10:00 pm19 °FLight snow. Overcast.9 mph93%30.38 "Hg9 mi
9:00 pm21 °FLight snow. Overcast.9 mph86%30.38 "Hg5 mi
8:04 pm21 °FLight snow. Mostly cloudy.8 mph93%30.39 "Hg2 mi
7:00 pm21 °FLight snow. Mostly cloudy.9 mph86%30.39 "Hg9 mi
6:04 pm21 °FLight snow. Overcast.10 mph86%30.39 "Hg3 mi
5:00 pm21 °FLight snow. Overcast.9 mph93%30.39 "Hg1 mi
4:00 pm23 °FLight snow. More clouds than sun.13 mph80%30.37 "Hg9 mi
3:56 pm23 °FLight snow. More clouds than sun.14 mph80%30.37 "Hg9 mi
3:00 pm25 °FLight snow. Mostly cloudy.18 mph63%30.36 "Hg9 mi
2:00 pm27 °FPartly sunny.18 mph59%30.35 "Hg9 mi
1:00 pm25 °FLight snow. Cloudy.16 mph74%30.35 "Hg6 mi
12:01 pm25 °FLight snow. Mostly cloudy.13 mph80%30.36 "Hg5 mi
11:00 am25 °FLight snow. Cloudy.15 mph80%30.37 "Hg7 mi
10:00 am23 °FPartly sunny.9 mph86%30.37 "Hg9 mi
9:04 am23 °FPartly sunny.13 mph86%30.36 "Hg9 mi
8:00 am23 °FLight snow. Overcast.9 mph86%30.35 "Hg9 mi
7:00 am21 °FLight snow. Mostly cloudy.No wind93%30.35 "Hg9 mi
6:00 am21 °FLight snow. Mostly cloudy.No wind93%30.34 "Hg5 mi
5:00 am19 °FLight snow. Mostly cloudy.2 mph93%30.33 "Hg4 mi
Weather by CustomWeather, © 2016

See weather overviewHow to use our weather pages